Showing default

UNISAT 6, 40012

Orbit data source: Space-Track

UNISAT 6, 40012 is a payload satellite owned by GAUSS SrI (IT) in SSO that was launched on Thu, 19 Jun 2014 UTC via a DNEPR launch vehicle from the Orenburg, Russia (OREN). Payload-class satellites include a variety of spacecraft equipped with specific instruments for various scientific and technological missions. These include communications satellites like Starlink; space stations such as the ISS; scientific satellites like the Hubble; Earth observation satellites from companies like Planet Labs, Umbra, and HawkEye 360; GPS; miniature CubeSats for education and research; and military/defense satellites.

Loading next visibility...
Identifier
40012, 2014-033C
Orbit
SSO
Country
Flag of ITIT
Related business
Manufacturer
GAUSS SrI
Mission
Operational Amateur Technology
Bus & Motor
UNISAT, Unknown motor
Mass
26 kg wet, ~19 kg dry
Launch date (UTC)
2014-06-19 (12 years ago)
Launch vehicle
DNEPR
Launch site
Orenburg, Russia (OREN)
Object type
Payload
Rocket body
Debris
Shape & HBR
Box + 4 Pan, 0.5 m
Radar Cross Section
0.238 m², Medium (>0.1 m² and < 1m²)

Expand to show TLE details & history
Last TLE update: 8 hours ago

TLE from 8 hours ago
0 UNISAT 6
1 40012U 14033C   26123.14905121  .00003604  00000-0  39185-3 0  9997
2 40012  97.7823 276.6763 0044534 215.4532 144.3723 14.87980647639460
Epoch: 2026-05-03T03:34Z
TLE epoch observation values (Epoch: 2026-05-03T03:34:38.024Z)
Latitude
-0.00001°
Longitude
1.96112°
Altitude
632.609 km
Speed
7.528 km/s
True Right ascension
18h 26m 42s
True Declination
0° 00' 00"
Sunlit
Object was in full shadow at epoch
Visualization orbit readout
Latitude
Unknown
Longitude
Unknown
Altitude
Unknown
Speed
Unknown
Apparent Right ascension
Unknown
Apparent Declination
Unknown
Sunlit
N/A
Visualization observer readout
Local Sidereal Time
19:19:30
Azimuth
Unknown
Elevation
Unknown
Doppler factor
Unknown
Orbital elements
Apogee altitude
632.353 km
Perigee altitude
570.189 km
Semi-major axis
6,979.408 km
Eccentricity
0.00445
Inclination
97.7823°
RAAN
276.6763°
Arg. of periapsis
215.4532°
True anomaly
144.66823°
Mean anomaly
144.3723°
Eccentric anomaly
144.5204°
Mean motion
3.72233 °/min
Orbital period
96.71 mins
BSTAR
0.00039185
Loading maneuver chart data...
Computing Atmospheric mass density...
Loading historical data...
Loading historical data...
Loading historical data...
Loading historical data...
Loading historical data...
Loading historical data...
Loading historical data...

Documentation

Showing up to 5 results
|